Regional Weather Roundup
Issued by NWS State College, PA

Home | Current Version | Previous Version | Text Only | Print | Product List | Glossary On
Versions: 1 2 3 4 5 6 7 8 9 10 11 12 13 14 15 16 17 18 19 20 21 22 23 24 25 26 27 28 29 30 31 32 33 34 35 36 37 38 39 40 41 42 43 44 45 46 47 48 49 50
000
ASUS41 KCTP 252203
RWRCTP

REGIONAL WEATHER ROUNDUP
NATIONAL WEATHER SERVICE STATE COLLEGE PA
500 PM EST TUE NOV 25 2014

Note: "fair" indicates few or no clouds below 12,000 feet with no
significant weather and/or obstructions to visibility.

* = STATION THAT DOES NOT REPORT PRECIPITATION /E.G. RAIN...SNOW...ETC/
    THUNDER OR FOG.

PAZ002>004-007>009-013>016-020>023-029>032-252300-
WESTERN PENNSYLVANIA

CITY           SKY/WX    TMP DP  RH WIND       PRES   REMARKS
ERIE           CLOUDY    37  24  59 SW13G22   30.08R
MEADVILLE      CLOUDY    34  25  69 W13       30.07R
FRANKLIN*      CLOUDY    36  25  64 W10G18    30.09R
NEW CASTLE       N/A     37  25  62 W10       30.11R
BEAVER COUNTY  PTCLDY    37  27  65 W9G20     30.09R
BUTLER*        CLEAR     39  25  56 W6G17     30.08S
PITTSBURGH INT PTCLDY    41  27  57 NW15      30.07R
PITTSBURGH     CLEAR     44  25  47 NW7       30.04R
INDIANA*       PTCLDY    45  27  49 NW8       30.07R
LATROBE        CLEAR     46  27  46 W13       30.06R
WASHINGTON CO* CLEAR     45  27  49 NW12      30.08R
$$

PAZ004>006-010>012-017>019-024>028-033>037-041-042-045-046-049>053-252300-
CENTRAL PENNSYLVANIA

CITY           SKY/WX    TMP DP  RH WIND       PRES   REMARKS
BRADFORD       CLOUDY    38  24  57 VRB6G18   30.01R
DUBOIS         PTCLDY    39  27  62 W13       30.02R
CLEARFIELD     CLEAR     43  26  51 W8G18     30.02R
JOHNSTOWN      PTCLDY    41  26  55 W8        30.01R
ALTOONA        CLEAR     43  28  55 W7        30.02R
STATE COLLEGE  CLEAR     43  28  56 W6        30.02S
WILLIAMSPORT   CLEAR     43  27  53 SW7       30.02R
SELINSGROVE    CLEAR     47  28  47 CALM      30.04R
FT INDIANTOWN  CLEAR     49  28  42 W3        30.04R
CAPITAL CITY   CLEAR     50  28  42 W5        30.04S
HARRISBURG     MOCLDY    47  33  58 CALM      30.03S
YORK           PTCLDY    45  29  53 CALM      30.03S
$$

PAZ038>040-043-044-047-048-054-055-060>062-067>071-252300-
EASTERN PENNSYLVANIA

CITY           SKY/WX    TMP DP  RH WIND       PRES   REMARKS
SCRANTON       CLEAR     47  26  44 SW6       30.01R
MOUNT POCONO   MOCLDY    43  25  49 W8        29.99R
ALLENTOWN      MOCLDY    45  27  49 W3        30.03R
QUAKERTOWN*    MOCLDY    48  28  46 W3        30.04R
READING        PTCLDY    50  27  40 W6        30.03R
LANCASTER      PTCLDY    48  28  46 W7        30.03S
COATESVILLE    MOCLDY    50  30  46 CALM      30.05R
POTTSTOWN      MOCLDY    50  28  42 S3        30.05R
BLUE BELL      CLOUDY    48  32  53 CALM      30.04R
DOYLESTOWN     CLOUDY    47  30  51 SW3       30.03R
WILLOW GROVE   NOT AVBL
NORTH PHILA    CLOUDY    51  27  39 SW3       30.06R
PHILADELPHIA   CLOUDY    52  31  44 SW7       30.07R
$$



USA.gov is the U.S. government's official web portal to all federal, state and local government web resources and services.